When you browse on this site, cookies collect data to enhance your experience and personalize the content and advertising you see.
Visit our Privacy Policy to learn more. By continuing to use the site, you agree to this use of cookies and data.
  • In Hungary
  • List of Countries
  • For 7 days
  • Water Temperature
  • Weather Map
  • News
  • Weather Widgets
  • user-avatar
    Login

    Hourly Weather Verhnyaya Domashka

    Today, 15 October, Tuesday

    Time Temperature Precipitation Wind Pressure Humidity
    00:00 +8°C° 0 mm 3 mps 756 mmHg 85%
    01:00 +9°C° 0.3 mm 3 mps 756 mmHg 85%
    02:00 +8°C° 0.3 mm 4 mps 755 mmHg 86%
    03:00 +9°C° 0 mm 5 mps 753 mmHg 85%
    04:00 +10°C° 1.7 mm 6 mps 752 mmHg 86%
    05:00 +11°C° 1.7 mm 7 mps 752 mmHg 87%
    06:00 +12°C° 1.7 mm 9 mps 751 mmHg 87%
    07:00 +12°C° 0.2 mm 9 mps 750 mmHg 83%
    08:00 +13°C° 0.2 mm 8 mps 750 mmHg 79%
    09:00 +13°C° 0 mm 9 mps 750 mmHg 75%
    10:00 +13°C° 0.1 mm 8 mps 750 mmHg 75%
    11:00 +15°C° 0.1 mm 7 mps 750 mmHg 75%
    12:00 +15°C° 0.1 mm 7 mps 750 mmHg 75%
    13:00 +15°C° 0 mm 7 mps 750 mmHg 74%
    14:00 +16°C° 0 mm 8 mps 751 mmHg 73%
    15:00 +16°C° 0 mm 8 mps 751 mmHg 72%
    16:00 +15°C° 0.1 mm 7 mps 752 mmHg 75%
    17:00 +13°C° 0.1 mm 5 mps 752 mmHg 78%
    18:00 +12°C° 0.1 mm 4 mps 753 mmHg 82%
    19:00 +11°C° 0 mm 4 mps 754 mmHg 83%
    20:00 +10°C° 0 mm 4 mps 755 mmHg 84%
    21:00 +8°C° 0 mm 4 mps 755 mmHg 86%
    22:00 +7°C° 0 mm 4 mps 756 mmHg 85%
    23:00 +6°C° 0 mm 4 mps 756 mmHg 83%

    Tomorrow, 16 October, Wednesday

    Time Temperature Precipitation Wind Pressure Humidity
    00:00 +6°C° 0 mm 4 mps 757 mmHg 82%
    01:00 +5°C° 0 mm 4 mps 758 mmHg 81%
    02:00 +4°C° 0 mm 4 mps 759 mmHg 80%
    03:00 +3°C° 0 mm 5 mps 759 mmHg 79%
    04:00 +2°C° 0 mm 5 mps 760 mmHg 76%
    05:00 +2°C° 0 mm 5 mps 760 mmHg 73%
    06:00 +1°C° 0 mm 5 mps 760 mmHg 71%
    07:00 +2°C° 0 mm 5 mps 761 mmHg 69%
    08:00 +3°C° 0 mm 5 mps 762 mmHg 66%
    09:00 +3°C° 0 mm 6 mps 762 mmHg 64%
    10:00 +5°C° 0 mm 5 mps 763 mmHg 63%
    11:00 +6°C° 0 mm 5 mps 763 mmHg 62%
    12:00 +6°C° 0 mm 4 mps 763 mmHg 61%
    13:00 +6°C° 0 mm 4 mps 763 mmHg 61%
    14:00 +6°C° 0 mm 4 mps 764 mmHg 61%
    15:00 +7°C° 0 mm 3 mps 764 mmHg 61%
    16:00 +5°C° 0 mm 3 mps 764 mmHg 65%
    17:00 +5°C° 0 mm 2 mps 765 mmHg 70%
    18:00 +5°C° 0 mm 2 mps 765 mmHg 75%
    19:00 +4°C° 0 mm 2 mps 765 mmHg 78%
    20:00 +3°C° 0 mm 2 mps 766 mmHg 81%
    21:00 +3°C° 0 mm 2 mps 766 mmHg 83%
    22:00 +3°C° 0 mm 1 mps 766 mmHg 84%
    23:00 +3°C° 0 mm 1 mps 766 mmHg 85%

    Day after tomorrow, 17 October, Thursday

    Time Temperature Precipitation Wind Pressure Humidity
    00:00 +2°C° 0 mm 0 mps 766 mmHg 86%
    01:00 +2°C° 0 mm 0 mps 766 mmHg 86%
    02:00 +1°C° 0 mm 0 mps 767 mmHg 86%
    03:00 +1°C° 0 mm 0 mps 767 mmHg 86%
    04:00 +2°C° 0 mm 1 mps 767 mmHg 87%
    05:00 +2°C° 0 mm 1 mps 767 mmHg 87%
    06:00 +1°C° 0 mm 2 mps 767 mmHg 88%
    07:00 +2°C° 0 mm 2 mps 767 mmHg 83%
    08:00 +4°C° 0 mm 2 mps 766 mmHg 78%
    09:00 +4°C° 0 mm 3 mps 766 mmHg 73%
    10:00 +5°C° 0 mm 4 mps 766 mmHg 68%
    11:00 +6°C° 0 mm 4 mps 766 mmHg 63%
    12:00 +7°C° 0 mm 5 mps 765 mmHg 58%
    13:00 +7°C° 0 mm 5 mps 765 mmHg 56%
    14:00 +8°C° 0 mm 5 mps 764 mmHg 55%
    15:00 +8°C° 0 mm 6 mps 764 mmHg 53%
    16:00 +8°C° 0 mm 6 mps 763 mmHg 55%
    17:00 +7°C° 0 mm 6 mps 763 mmHg 56%
    18:00 +6°C° 0 mm 5 mps 762 mmHg 58%
    19:00 +5°C° 0 mm 6 mps 762 mmHg 57%
    20:00 +5°C° 0 mm 6 mps 762 mmHg 57%
    21:00 +5°C° 0 mm 6 mps 761 mmHg 56%
    22:00 +5°C° 0 mm 6 mps 761 mmHg 56%
    23:00 +5°C° 0 mm 6 mps 760 mmHg 56%

    18 October, Friday

    Time Temperature Precipitation Wind Pressure Humidity
    00:00 +4°C° 0 mm 6 mps 760 mmHg 57%
    01:00 +4°C° 0 mm 6 mps 760 mmHg 57%
    02:00 +4°C° 0 mm 6 mps 759 mmHg 58%
    03:00 +4°C° 0 mm 6 mps 759 mmHg 59%
    04:00 +5°C° 0 mm 5 mps 759 mmHg 60%
    05:00 +3°C° 0 mm 5 mps 758 mmHg 61%
    06:00 +3°C° 0 mm 5 mps 758 mmHg 62%
    07:00 +5°C° 0 mm 5 mps 758 mmHg 61%
    08:00 +6°C° 0 mm 5 mps 757 mmHg 60%
    09:00 +7°C° 0 mm 5 mps 757 mmHg 59%
    10:00 +8°C° 0 mm 5 mps 757 mmHg 59%
    11:00 +10°C° 0 mm 4 mps 757 mmHg 59%
    12:00 +11°C° 0 mm 4 mps 757 mmHg 59%
    13:00 +12°C° 0 mm 4 mps 756 mmHg 60%
    14:00 +12°C° 0 mm 3 mps 756 mmHg 61%
    15:00 +12°C° 0 mm 3 mps 756 mmHg 63%
    16:00 +12°C° 0 mm 2 mps 756 mmHg 67%
    17:00 +12°C° 0 mm 1 mps 756 mmHg 71%
    18:00 +11°C° 0 mm 1 mps 756 mmHg 75%
    19:00 +11°C° 0 mm 1 mps 757 mmHg 75%
    20:00 +10°C° 0 mm 2 mps 757 mmHg 76%
    21:00 +10°C° 0 mm 2 mps 757 mmHg 77%
    22:00 +9°C° 0.1 mm 3 mps 758 mmHg 80%
    23:00 +7°C° 0.1 mm 4 mps 758 mmHg 83%

    19 October, Saturday

    Time Temperature Precipitation Wind Pressure Humidity
    00:00 +6°C° 0.1 mm 5 mps 758 mmHg 86%
    01:00 +6°C° 0 mm 5 mps 758 mmHg 84%
    02:00 +5°C° 0 mm 5 mps 759 mmHg 83%
    03:00 +5°C° 0 mm 5 mps 759 mmHg 82%
    04:00 +3°C° 0 mm 5 mps 759 mmHg 79%
    05:00 +4°C° 0 mm 4 mps 760 mmHg 77%
    06:00 +4°C° 0 mm 4 mps 760 mmHg 74%
    07:00 +4°C° 0 mm 4 mps 760 mmHg 72%
    08:00 +4°C° 0 mm 4 mps 761 mmHg 70%
    09:00 +4°C° 0 mm 4 mps 761 mmHg 68%
    10:00 +5°C° 0 mm 4 mps 761 mmHg 66%
    11:00 +6°C° 0 mm 4 mps 762 mmHg 64%
    12:00 +7°C° 0 mm 3 mps 762 mmHg 63%
    13:00 +8°C° 0 mm 3 mps 762 mmHg 63%
    14:00 +8°C° 0 mm 3 mps 762 mmHg 64%
    15:00 +9°C° 0 mm 3 mps 762 mmHg 64%
    16:00 +9°C° 0 mm 3 mps 762 mmHg 68%
    17:00 +8°C° 0 mm 2 mps 762 mmHg 71%
    18:00 +8°C° 0 mm 2 mps 762 mmHg 74%
    19:00 +8°C° 0.1 mm 3 mps 762 mmHg 76%
    20:00 +8°C° 0.1 mm 3 mps 763 mmHg 77%
    21:00 +7°C° 0.1 mm 3 mps 763 mmHg 79%
    22:00 +7°C° 0.3 mm 3 mps 763 mmHg 80%
    23:00 +7°C° 0.3 mm 3 mps 763 mmHg 81%

    20 October, Sunday

    Time Temperature Precipitation Wind Pressure Humidity
    00:00 +7°C° 0.3 mm 3 mps 763 mmHg 82%
    01:00 +6°C° 0.1 mm 2 mps 763 mmHg 81%
    02:00 +6°C° 0.1 mm 2 mps 763 mmHg 81%
    03:00 +6°C° 0.1 mm 2 mps 764 mmHg 81%
    04:00 +6°C° 0.1 mm 2 mps 764 mmHg 82%
    05:00 +6°C° 0.1 mm 2 mps 764 mmHg 82%
    06:00 +6°C° 0.1 mm 2 mps 764 mmHg 82%
    07:00 +6°C° 0 mm 2 mps 764 mmHg 81%
    08:00 +6°C° 0 mm 2 mps 765 mmHg 79%
    09:00 +7°C° 0 mm 2 mps 765 mmHg 78%
    10:00 +7°C° 0 mm 2 mps 765 mmHg 75%
    11:00 +8°C° 0 mm 2 mps 765 mmHg 73%
    12:00 +9°C° 0 mm 2 mps 766 mmHg 70%
    13:00 +9°C° 0 mm 2 mps 766 mmHg 71%
    14:00 +9°C° 0 mm 2 mps 766 mmHg 71%
    15:00 +9°C° 0 mm 2 mps 766 mmHg 71%
    16:00 +8°C° 0 mm 2 mps 766 mmHg 73%
    17:00 +8°C° 0 mm 2 mps 766 mmHg 76%
    18:00 +7°C° 0 mm 2 mps 766 mmHg 79%
    19:00 +7°C° 0 mm 2 mps 767 mmHg 80%
    20:00 +6°C° 0 mm 2 mps 767 mmHg 81%
    21:00 +6°C° 0 mm 2 mps 767 mmHg 82%
    22:00 +5°C° 0 mm 2 mps 767 mmHg 84%
    23:00 +5°C° 0 mm 2 mps 767 mmHg 85%
    Show more